User: anonymous   Login
Location: Unspecified
(0.0000°N, 0.0000°E)
Time: 05:24:46
(UTC+00:00)
Language:

NNS O-29 - Orbit

View from above orbital plane
View from above orbital plane
View from above satellite
View from above satellite

Ground track
Ground track

The orbit data is extracted from the following two-line orbital elements,

1 18362U 87080B   17325.54071545  .00000023  00000-0  24358-4 0  9993
2 18362  90.3254 340.9379 0107193  28.1041  88.6518 13.44034851479972
Epoch (UTC): 21 November 2017 12:58:37
Eccentricity: 0.0107193
inclination: 90.3254°
perigee height: 1014 km
apogee height: 1174 km
right ascension of ascending node: 340.9379°
argument of perigee: 28.1041°
revolutions per day: 13.44034851
mean anomaly at epoch: 88.6518°
orbit number at epoch: 47997

The dashed part of the orbit path shows where the satellite is in the earth's shadow,  

DLR